INTELSAT 30 (IS-30) (40271 NORAD) Tracking and Keplerian Element Data

This shows tracking and keplerian element data for the satellite.

Feedback or suggestion? Click here.




ElementValue
Catalog40271
NameINTELSAT 30 (IS-30)
Epoch Orbit1963
Epoch Day53.10272028
Epoch Year2020
RAAN113.0001
Inclination0.0141
Eccentricity0.0002183
Argument of Perigee1.7506
Mean Anonmoly338.611
Mean Motion1.00270025
Decay Rate-1.68E-06
L11 40271U 14062A 20053.10272028 -.00000168 00000-0 00000+0 0 9994
L22 40271 0.0141 113.0001 0002183 1.7506 338.6110 1.00270025 19639

Live tracking and technical data element details for INTELSAT 30 (IS-30) (NORAD 40271). INTELSAT 30 (IS-30) can be tracked NOW for your location showing map with azimuth and elevation plus other details from your city location.

Track the satellite on the map from your city or location and see movement details for azimuth, elevation, latitude, longitude, range, height, and movement on the map or in text.







IsCatalogInMostPopularTable: catalog: 40271, numindb: 393
Update: records affected: 1



GetName: 40271 INTELSAT 30 (IS-30)

Hit Count: updated at: Sun, 23 Feb 2020 07:16:23 GMT